x

8413320 - Bar Harbor, Me (atgm1) Weather Station

8:30am - Tue 30th Aug 2016 All times are EDT. -4 hours from GMT.

  • Wind
    8mph, 9mph gusts
  • Sea Temp 59°f
  • 空気 Temp 66°f
  • Sea Pressure 1018.4mb
  • 8413320 - Bar Harbor, Me
  • 8413320 - Bar Harbor, Me

More Historic Weather Station data

Upgrade to MSW Pro to gain access to the past 30 days of data for over 8000 Wavebouys and Weather Stations around the globe.

Join Pro

Comparision Forecast

View Surf forecast
   
Tue 08/30 8:30am 8 9 mph 1018.4mb 59f 66f
8:24am 7 9 mph 1018.3mb 59f 66f
8:18am 7 10 mph 1018.3mb 59f 66f
8:12am 8 10 mph 1018.3mb 59f 66f
8:06am 9 11 mph 1018.4mb 59f 66f
8:00am 9 11 mph 1018.4mb 59f 65f
7:54am 9 11 mph 1018.4mb 59f 65f
7:48am 8 9 mph 1018.4mb 60f 66f
7:42am 8 10 mph 1018.4mb 60f 65f
7:36am 8 11 mph 1018.5mb 60f 66f
7:30am 8 9 mph 1018.5mb 60f 65f
7:24am 7 10 mph 1018.5mb 60f 65f
7:18am 9 10 mph 1018.5mb 60f 65f
7:12am 7 9 mph 1018.5mb 60f 65f
7:06am 6 11 mph 1018.5mb 60f 65f
7:00am 8 9 mph 1018.4mb 60f 64f
6:54am 6 7 mph 1018.4mb 60f 64f
6:48am 6 8 mph 1018.3mb 60f 64f
6:42am 7 9 mph 1018.3mb 60f 64f
6:36am 7 9 mph 1018.2mb 60f 64f
6:30am 6 10 mph 1018.1mb 60f 64f
6:24am 5 8 mph 1018.1mb 60f 64f
6:18am 6 10 mph 1018.1mb 60f 64f
6:12am 7 10 mph 1018mb 60f 64f
6:06am 6 8 mph 1018mb 60f 64f
6:00am 7 9 mph 1018mb 60f 64f
5:54am 6 8 mph 1018mb 60f 64f
5:48am 6 9 mph 1017.9mb 60f 64f
5:42am 6 10 mph 1017.9mb 60f 64f
5:36am 6 10 mph 1018mb 60f 64f
5:30am 7 10 mph 1017.9mb 60f 64f
5:24am 7 10 mph 1017.8mb 60f 64f
5:18am 7 10 mph 1017.7mb 60f 64f
5:12am 6 9 mph 1017.8mb 60f 64f
5:06am 5 8 mph 1017.8mb 60f 64f
5:00am 6 9 mph 1017.8mb 60f 64f
4:54am 6 11 mph 1017.8mb 60f 64f
4:48am 7 9 mph 1017.8mb 60f 64f
4:42am 7 13 mph 1017.7mb 60f 65f
4:36am 6 9 mph 1017.8mb 60f 65f
4:30am 5 6 mph 1017.7mb 60f 64f
4:24am 6
mph
1017.6mb 60f 63f
4:18am 6 8 mph 1017.5mb 60f 64f
4:12am 6 7 mph 1017.6mb 60f 64f
4:06am 6 8 mph 1017.6mb 60f 64f
4:00am 7 9 mph 1017.5mb 60f 64f
3:54am 7 9 mph 1017.6mb 60f 64f
3:48am 6 9 mph 1017.5mb 60f 64f
3:42am 6 9 mph 1017.4mb 60f 64f
3:36am 6 8 mph 1017.4mb 60f 64f
3:30am 6 7 mph 1017.4mb 60f 63f
3:24am 5 8 mph 1017.4mb 60f 64f
3:18am 6 7 mph 1017.5mb 60f 63f
3:12am 7 8 mph 1017.4mb 60f 63f
3:06am 7 9 mph 1017.3mb 60f 64f
3:00am 7 10 mph 1017.2mb 60f 64f
2:54am 6 8 mph 1017.2mb 60f 64f
2:48am 6 9 mph 1017.2mb 60f -
2:42am 8 9 mph 1017.1mb 60f -
2:36am 7 8 mph 1017.1mb 60f -
2:30am 6 7 mph 1017.2mb 60f 64f
2:24am 5 7 mph 1017.3mb 60f 64f
2:18am 5 7 mph 1017.4mb 60f 64f
2:12am 5 8 mph 1017.4mb 60f 64f
2:06am 7 8 mph 1017.5mb 60f 64f
2:00am 7 9 mph 1017.4mb 60f 64f
1:54am 7 9 mph 1017.4mb 60f 64f
1:48am 8 10 mph 1017.5mb 60f -
1:42am 8 11 mph 1017.5mb 60f -
1:36am 8 11 mph 1017.7mb 60f -
1:30am 9 11 mph 1017.6mb 60f 65f
1:24am 9 11 mph 1017.7mb 60f 65f
1:18am 8 10 mph 1017.8mb 60f 64f
1:12am 7 8 mph 1017.9mb 60f 65f
1:06am 7 10 mph 1017.9mb 60f 64f
1:00am 8 9 mph 1017.9mb 60f 65f
12:54am 7 9 mph 1018mb 60f 64f
12:48am 7 9 mph 1018mb 60f 65f
12:42am 9 10 mph 1018mb 60f 64f
12:36am 9 10 mph 1017.9mb 60f 65f
12:30am 7 9 mph 1018mb 60f 65f
12:24am 6 8 mph 1018mb 60f 64f
12:18am 7
mph
1018mb 60f 64f
12:12am 6 8 mph 1018mb 60f 65f
12:06am 6 8 mph 1018.1mb 60f 65f
12:00am 7 8 mph 1018.1mb 60f 65f
Mon 08/29 11:54pm 8 9 mph 1018.1mb 60f 65f
11:48pm 9 10 mph 1018mb 60f 66f
11:42pm 7 9 mph 1018.1mb 60f 66f
11:36pm 6 9 mph 1018mb 60f 66f
11:30pm 7 8 mph 1018mb 60f 66f
11:24pm 6 7 mph 1017.9mb 60f 66f
11:18pm 5 6 mph 1018mb 60f 66f
11:12pm 5 7 mph 1018mb 60f 66f
11:06pm 6 7 mph 1018mb 60f 66f
11:00pm 7 9 mph 1018mb 60f 67f
10:54pm 6 9 mph 1017.9mb 60f 65f
10:48pm 8 9 mph - 60f 66f
10:42pm 9 10 mph - 60f 66f
10:36pm 10 11 mph - 60f 66f
10:30pm 8 10 mph - 60f 66f
10:24pm 9 11 mph - 59f 66f
10:18pm 9 11 mph 1017.6mb 59f 67f
10:12pm 8 10 mph 1017.7mb 59f 66f
10:06pm 7 8 mph 1017.7mb 59f 65f
10:00pm  -  mph 1017.6mb 59f 65f
9:54pm  -  mph 1017.7mb 59f 65f
9:48pm 9 11 mph - 59f 65f
9:42pm 10 11 mph - 59f 65f
9:36pm 9 10 mph - 58f 65f
9:30pm 9 10 mph - 58f 66f
9:24pm 9
mph
- 58f 66f
9:18pm 7 9 mph - 58f 65f
9:12pm 9
mph
- 58f 66f
9:06pm 9 10 mph - 58f 68f
9:00pm 9 10 mph 1017mb 58f 68f
8:54pm 10 13 mph 1017mb 58f 67f
8:48pm 10 11 mph - 59f -
8:42pm 10 14 mph - 60f -
8:36pm 11 14 mph - 60f -
8:30pm 14 16 mph - 59f 69f
8:24pm 11 14 mph - 58f 70f
8:18pm 13 15 mph 1016.7mb 58f 70f
8:12pm 14 17 mph 1016.7mb 58f 70f
8:06pm 11 15 mph 1016.7mb 59f 70f
8:00pm  -  mph 1016.4mb 59f 70f
7:54pm  -  mph 1016.3mb 60f 70f
7:48pm  -  mph 1016.4mb 60f -
7:42pm  -  mph 1016.3mb 60f -
7:36pm  -  mph 1016mb 59f -
7:30pm 17 22 mph 1015.8mb 58f 71f
7:24pm 15 20 mph 1015.7mb 58f 71f
7:18pm  -  mph 1015.7mb 58f 69f
7:12pm  -  mph 1015.5mb 59f 70f
7:06pm  -  mph 1015.4mb 58f 69f
7:00pm 14 22 mph - 59f 71f
6:54pm 16 22 mph - 58f 73f
6:48pm 17 21 mph - 58f 72f
6:42pm 16 22 mph - 58f 72f
6:36pm 15 18 mph - 58f 71f
6:30pm 16 18 mph - 59f 72f
6:24pm 14 18 mph - 59f 72f
6:18pm 14 17 mph 1014.1mb 59f 71f
6:12pm 14 18 mph 1014mb 60f 71f
6:06pm 16 21 mph 1013.9mb 60f 72f
6:00pm  -  mph - 60f 72f
5:54pm  -  mph - 60f 72f
5:48pm 16 22 mph 1013.6mb 60f 72f
5:42pm 16 22 mph 1013.6mb 60f 73f
5:36pm 16 22 mph 1013.6mb 60f 73f
5:30pm 17 25 mph 1013.6mb 60f 72f
5:24pm 20 24 mph 1013.7mb 60f 73f
5:18pm 20 25 mph 1013.6mb 60f 72f
5:12pm 22 29 mph 1013.6mb 60f 73f
5:06pm 22 28 mph 1013.7mb 60f 72f
5:00pm 23 29 mph 1013.6mb 60f 72f
4:54pm 20 26 mph 1013.6mb 60f 72f
4:48pm 21 26 mph 1013.5mb 60f 73f
4:42pm 21 29 mph 1013.3mb 60f 72f
4:36pm 23 30 mph 1013.2mb 60f 73f
4:30pm 26 32 mph 1013mb 60f 73f
4:24pm 22 25 mph 1013.1mb 60f 72f
4:18pm 20 28 mph 1013.3mb 60f 72f
4:12pm 24 32 mph 1013.3mb 60f 73f
4:06pm 28 36 mph 1013.2mb 60f 73f
4:00pm 28 31 mph 1012.8mb 60f 74f
3:54pm 23 29 mph 1012.9mb 60f 72f
3:48pm 23 31 mph 1012.8mb 60f 74f
3:42pm 23 29 mph 1012.8mb 60f 74f
3:36pm 23 32 mph 1012.8mb 60f 74f
3:30pm 26 31 mph 1012.7mb 60f 75f
3:24pm 21 30 mph 1012.6mb 60f 75f
3:18pm 28 31 mph 1012.5mb 60f 74f
3:12pm 28 34 mph 1012.4mb 59f 75f
3:06pm 23 34 mph 1012.4mb 59f 74f
3:00pm 25 31 mph 1012.4mb 59f 75f
2:54pm 23 30 mph 1012.4mb 59f 74f
2:48pm 23 29 mph 1012.2mb 59f 75f
2:42pm 25 32 mph 1012.1mb 59f 76f
2:36pm 22 32 mph 1012mb 59f 76f
2:30pm 20 25 mph 1012mb 59f 76f
2:24pm 24 32 mph 1012mb 59f 76f
2:18pm 24 31 mph 1011.9mb 58f 76f
2:12pm 23 28 mph 1011.9mb 59f 76f
2:06pm 20 30 mph 1012mb 59f 75f
2:00pm 23 29 mph 1011.8mb 59f 75f
1:54pm 26 31 mph 1011.8mb 58f 75f
1:48pm 18 26 mph 1012mb 58f 75f
1:42pm 18 25 mph 1011.9mb 58f 76f
1:36pm 18 25 mph 1011.9mb 58f 76f
1:30pm 20 26 mph 1011.8mb 58f 76f
1:24pm 20 28 mph 1011.8mb 58f 75f
1:18pm 21 28 mph 1011.7mb 58f 76f
1:12pm 18 28 mph 1011.6mb 58f 76f
1:06pm 17 24 mph 1011.7mb 58f 76f
1:00pm 22 28 mph 1011.7mb 58f 76f
12:54pm 16 21 mph 1011.7mb 58f 75f
12:48pm 16 24 mph 1011.8mb 58f 74f
12:42pm 15 22 mph 1011.9mb 58f 74f
12:36pm 17 21 mph 1012mb 58f 74f
12:30pm 20 28 mph 1012mb 58f 74f
12:24pm 22 26 mph 1011.9mb 58f 74f
12:18pm 21 29 mph 1011.9mb 58f 74f
12:12pm 21 30 mph 1011.9mb 58f 74f
12:06pm 20 28 mph 1011.9mb 58f 74f
12:00pm 22 29 mph 1011.7mb 58f 75f
11:54am 21 31 mph 1011.7mb 58f 74f
11:48am 20 24 mph 1011.8mb 58f 75f
11:42am 18 28 mph 1011.8mb 58f 75f
11:36am 20 23 mph 1011.8mb 57f 74f
11:30am 13 16 mph 1011.8mb 57f 76f
11:24am 10 16 mph 1011.9mb 57f 75f
11:18am 11 21 mph 1012mb 57f 75f
11:12am 16 21 mph 1011.9mb 57f 75f
11:06am 14 17 mph 1011.9mb 57f 75f
11:00am 10 16 mph 1012mb 57f 75f
10:54am 14 20 mph 1012.1mb 57f 74f
10:48am 14 18 mph 1012.2mb 57f 74f
10:42am 15 18 mph 1012.2mb 57f 74f
10:36am 14 20 mph 1012.2mb 57f 74f
10:30am 13 20 mph 1012.2mb 57f 75f
10:24am 14 20 mph 1012.2mb 57f 75f
10:18am 10 18 mph 1012.2mb 57f 75f
10:12am 11 22 mph 1012.2mb 57f 75f
10:06am 10 15 mph 1012.2mb 56f 75f
10:00am 9 17 mph 1012.1mb 57f 74f
9:54am 10 20 mph 1012.2mb 57f 74f
9:48am 10 16 mph 1012.2mb 55f 74f
9:42am 14 20 mph 1012.3mb 56f 73f
9:36am 13 22 mph 1012.3mb 56f 73f
9:30am 13 17 mph 1012.2mb 56f 73f
9:24am 14 18 mph 1012.4mb 55f 72f
9:18am 9 15 mph 1012.5mb 55f 72f
9:12am 11 18 mph 1012.5mb 57f 72f
9:06am 9 17 mph 1012.4mb 56f 72f
9:00am 11 18 mph 1012.3mb 55f 72f
8:54am 11 18 mph 1012.3mb 55f 72f
8:48am 10 22 mph 1012.3mb 55f 72f
8:42am 13 18 mph 1012.3mb 56f 71f
8:36am 11 21 mph 1012.4mb 55f 71f
8:30am 13 22 mph 1012.4mb 55f 71f
8:24am 14 20 mph 1012.4mb 55f 70f
8:18am 16 24 mph 1012.4mb 56f 70f
8:12am 15 25 mph 1012.5mb 56f 69f
8:06am 16 22 mph 1012.5mb 56f 69f
8:00am 18 25 mph 1012.7mb 56f 69f
7:54am 16 23 mph 1012.8mb 56f 68f
7:48am 15 23 mph 1012.9mb 56f 68f
7:42am 14 21 mph 1012.9mb 56f 68f
7:36am 15 22 mph 1012.9mb 56f 68f
7:30am 15 22 mph 1012.9mb 56f 68f
7:24am 17 22 mph 1013mb 56f 68f
7:18am 15 25 mph 1013.1mb 57f 68f
7:12am 14 25 mph 1013.1mb 57f 68f
7:06am 16 29 mph 1013.1mb 56f 68f
7:00am 14 24 mph 1013.1mb 57f 68f
6:54am 17 28 mph 1013mb 57f 68f
6:48am 16 24 mph 1013mb 57f 68f
6:42am 18 29 mph 1013mb 57f 68f
6:36am 16 25 mph 1013mb 57f 68f
6:30am 16 31 mph 1013.1mb 57f 68f
6:24am 16 26 mph 1013.2mb 57f 68f
6:18am 17 23 mph 1013.2mb 57f 68f
6:12am 16 26 mph 1013.4mb 57f 68f
6:06am 15 25 mph 1013.5mb 57f 68f
6:00am 18 25 mph 1013.5mb 57f 68f
5:54am 15 23 mph 1013.8mb 57f 68f
5:48am 17 25 mph 1013.7mb 58f 68f
5:42am 20 31 mph 1013.7mb 58f 68f
5:36am 14 29 mph 1013.7mb 58f 68f
5:30am 14 23 mph 1013.8mb 58f 68f
5:24am 15 25 mph 1014mb 58f 68f
5:18am 13 23 mph 1014.4mb 58f 68f
5:12am 14 28 mph 1014.3mb 58f 68f
5:06am 14 21 mph 1014.4mb 58f 68f
5:00am 15 23 mph 1014.5mb 58f 68f
4:54am 15 21 mph 1014.5mb 58f 68f
4:48am 18 29 mph 1014.4mb 58f 68f
4:42am 15 26 mph 1014.6mb 58f 68f
4:36am 17 25 mph 1014.5mb 58f 68f
4:30am 20 30 mph 1014.6mb 58f 68f
4:24am 16 26 mph 1014.7mb 58f 68f
4:18am 15 28 mph 1014.8mb 58f 68f
4:12am 18 30 mph 1014.9mb 58f 68f
4:06am 14 25 mph 1015mb 58f 68f
4:00am 20 26 mph 1015.1mb 58f 68f
3:54am 16 26 mph 1015.3mb 58f 68f
3:48am 17 26 mph 1015.3mb 58f 68f
3:42am 15 23 mph 1015.3mb 58f 68f
3:36am 13 25 mph 1015.3mb 58f 68f
3:30am 11 24 mph 1015.4mb 58f 68f
3:24am 13 24 mph 1015.6mb 58f 68f
3:18am 11 23 mph 1015.7mb 58f 68f
3:12am 8 22 mph 1015.9mb 58f 67f
3:06am 10 22 mph 1016mb 58f 68f
3:00am 10 21 mph 1016.1mb 58f 68f
2:54am 8 16 mph 1016.2mb 58f 67f
2:48am 6 17 mph 1016.3mb 58f 67f
2:42am 6 11 mph 1016.5mb 58f 67f
2:36am 5 11 mph 1016.6mb 58f 67f
2:30am 5 15 mph 1016.7mb 58f 67f
2:24am 9 18 mph 1016.7mb 58f 67f
2:18am 2 10 mph 1016.9mb 58f 66f
2:12am 8 13 mph 1016.9mb 58f 66f
2:06am 5 10 mph 1017mb 58f 66f
2:00am 7 10 mph 1017.2mb 58f 66f
1:54am 3 10 mph 1017.3mb 58f 66f
1:48am 5 14 mph 1017.4mb 58f -
1:42am 6 9 mph 1017.4mb 58f -
1:36am 7 11 mph 1017.4mb 58f -
1:30am 7 15 mph 1017.5mb 58f 66f
1:24am 5 14 mph 1017.5mb 58f 66f
1:18am 8 14 mph 1017.6mb 58f 66f
1:12am 7 13 mph 1017.6mb 58f 66f
1:06am 7 15 mph 1017.8mb 58f 66f
1:00am 8 15 mph 1017.9mb 58f 66f
12:54am 7 17 mph 1018.1mb 58f 66f
12:48am 5 11 mph 1018.2mb 58f 66f
12:42am 6 9 mph 1018.3mb 58f 65f
12:36am 5 9 mph 1018.2mb 58f 65f
12:30am 5 9 mph 1018.1mb 58f 65f
12:24am 5 11 mph 1018.2mb 58f 65f
12:18am 8 11 mph 1018.3mb 58f 66f
12:12am 6 10 mph 1018.3mb 58f 66f
12:06am 6 13 mph 1018.4mb 58f 66f
12:00am 7 11 mph 1018.6mb 58f 66f
Sun 08/28 11:54pm 5 9 mph 1018.8mb 58f 66f
11:48pm 6 11 mph 1018.8mb 58f 66f
11:42pm 3 14 mph 1019mb 58f 66f
11:36pm 3 15 mph 1018.9mb 58f 66f
11:30pm 3 13 mph 1019.1mb 58f 66f
11:24pm 1 8 mph 1019.2mb 58f 66f
11:18pm  -  3 mph 1019.3mb 58f 65f
11:12pm 2 3 mph 1019.3mb 58f 65f
11:06pm  -  3 mph 1019.4mb 58f 65f
11:00pm 3 6 mph 1019.4mb 58f 65f
10:54pm 3 7 mph 1019.5mb 58f 65f
10:48pm 5 10 mph 1019.6mb 58f 65f
10:42pm 5 9 mph 1019.6mb 58f 65f
10:36pm 6 11 mph 1019.6mb 58f 65f
10:30pm 5 10 mph 1019.7mb 58f 65f
10:24pm 3 8 mph 1019.7mb 58f 65f
10:18pm 5 9 mph 1019.8mb 58f 65f
10:12pm 2 6 mph 1020mb 58f 65f
10:06pm 1 7 mph 1020.1mb 58f 66f
10:00pm 3 6 mph 1020.2mb 58f 65f
9:54pm 3 7 mph 1020.2mb 58f 65f
9:48pm 2 6 mph 1020.1mb 58f 65f
9:42pm 5 9 mph 1020.2mb 58f 65f
9:36pm 6 9 mph 1020.3mb 58f 66f
9:30pm 3 7 mph 1020.5mb 58f 65f
9:24pm 5 9 mph 1020.6mb 58f 65f
9:18pm 3 7 mph 1020.4mb 58f 65f
9:12pm 3 6 mph 1020.5mb 59f 65f
9:06pm 3 7 mph 1020.7mb 59f 65f
9:00pm  -  mph 1020.9mb 59f 65f
8:54pm  -  mph 1021.1mb 59f 65f
8:48pm 3 7 mph 1021.2mb 59f 65f
8:42pm 3 7 mph 1021mb 59f 65f
8:36pm 3 9 mph 1021mb 59f 65f
8:30pm 6 9 mph 1021.2mb 58f 65f
8:24pm 5 9 mph 1021.2mb 57f 65f
8:18pm  -  mph 1021.2mb 57f 65f
8:12pm  -  mph 1021.2mb 57f 65f
8:06pm  -  mph 1021.1mb 58f 65f
8:00pm 6 11 mph 1021mb 59f 65f
7:54pm 8 13 mph 1021.1mb 58f 65f
7:48pm 7 13 mph - 58f 65f
7:42pm 8 13 mph - 58f 65f
7:36pm 6 9 mph - 58f 65f
7:30pm 3 10 mph 1020.9mb 58f 65f
7:24pm 6 10 mph 1021.1mb 57f 64f
7:18pm  -  mph 1021.1mb 57f 64f
7:12pm  -  mph 1021.1mb 57f 65f
7:06pm  -  mph 1021.1mb 57f 65f
7:00pm 6 10 mph 1021.1mb 57f 65f
6:54pm 5 10 mph 1021.2mb 58f 65f
6:48pm  -  mph - 58f -
6:42pm  -  mph - 58f -
6:36pm  -  mph - 58f -
6:30pm 8 13 mph 1021.3mb 58f 66f
6:24pm 8 11 mph 1021.4mb 58f 66f
6:18pm  -  mph 1021.4mb 58f 66f
6:12pm  -  mph 1021.4mb 58f 67f
6:06pm  -  mph 1021.5mb 58f 67f
6:00pm  -  mph 1021.5mb 58f 67f
5:54pm  -  mph 1021.5mb 58f 67f
5:48pm  -  mph - 58f 67f
5:42pm  -  mph - 59f 68f
5:36pm  -  mph - 59f 67f
5:30pm 6 10 mph 1021.8mb 59f 67f
5:24pm 6 9 mph 1021.8mb 60f 67f
5:18pm 6 8 mph 1021.9mb 60f 67f
5:12pm 5 8 mph 1022.1mb 59f 68f
5:06pm 6 9 mph 1022.1mb 60f 68f
5:00pm 6 9 mph 1022.2mb 59f 68f
4:54pm 5 8 mph 1022.2mb 60f 67f
4:48pm 5 8 mph 1022.3mb 60f 67f
4:42pm 6 9 mph 1022.4mb 61f 66f
4:36pm 5 7 mph 1022.5mb 61f 66f
4:30pm 6 9 mph 1022.5mb 61f 66f
4:24pm 8 10 mph 1022.5mb 62f 65f
4:18pm 6 10 mph 1022.7mb 62f 65f
4:12pm 6 10 mph 1022.7mb 62f 65f
4:06pm 7 10 mph 1022.8mb 62f 65f
4:00pm 8 10 mph 1022.8mb 62f 65f
3:54pm 7 13 mph 1022.8mb 62f 65f
3:48pm 6 11 mph 1022.8mb 62f 65f
3:42pm 9 15 mph 1022.9mb 62f 65f
3:36pm 8 13 mph 1023mb 62f 66f
3:30pm 9 13 mph 1022.9mb 62f 66f
3:24pm 8 13 mph 1023mb 62f 67f
3:18pm 8 11 mph 1023mb 62f 67f
3:12pm 10 13 mph 1022.9mb 62f 68f
3:06pm 10 14 mph 1023mb 62f 68f
3:00pm 10 13 mph 1023mb 62f 67f
2:54pm 8 11 mph 1023.1mb 62f 67f
2:48pm 11 14 mph 1023.3mb 61f 62f
2:42pm 9 13 mph 1023.5mb 61f 62f
2:36pm 10 15 mph 1023.5mb 61f 63f
2:30pm 10 16 mph 1023.5mb 61f 63f
2:24pm 11 15 mph 1023.5mb 61f 63f
2:18pm 9 13 mph 1023.5mb 61f 64f
2:12pm 8 13 mph 1023.5mb 61f 64f
2:06pm 13 16 mph 1023.6mb 61f 62f
2:00pm 10 15 mph 1023.7mb 61f 62f
1:54pm 11 16 mph 1023.7mb 61f 62f
1:48pm 13 15 mph 1023.8mb 61f 61f
1:42pm 10 15 mph 1023.9mb 61f 62f
1:36pm 9 14 mph 1024mb 61f 62f
1:30pm 10 15 mph 1024mb 61f 62f
1:24pm 11 14 mph 1024.2mb 61f 62f
1:18pm 10 14 mph 1024.3mb 61f 62f
1:12pm 9 15 mph 1024.3mb 61f 62f
1:06pm 10 16 mph 1024.3mb 61f 62f
1:00pm 9 13 mph 1024.3mb 61f 62f
12:54pm 9 13 mph 1024.4mb 61f 63f
12:48pm 10 15 mph 1024.4mb 61f 63f
12:42pm 9 13 mph 1024.5mb 61f 63f
12:36pm 10 13 mph 1024.5mb 61f 63f
12:30pm 10 14 mph 1024.5mb 61f 63f
12:24pm 9 13 mph 1024.5mb 61f 63f
12:18pm 10 14 mph 1024.6mb 61f 63f
12:12pm 9 13 mph 1024.6mb 61f 63f
12:06pm 9 14 mph 1024.7mb 61f 64f
12:00pm 8 11 mph 1024.7mb 61f 64f
11:54am 9 13 mph 1024.8mb 60f 64f
11:48am 6 7 mph 1024.9mb 60f 65f
11:42am 6 9 mph 1025mb 61f 65f
11:36am 7 11 mph 1025.1mb 61f 64f
11:30am 9 13 mph 1025.2mb 61f 64f
11:24am 10 13 mph 1025.2mb 61f 63f
11:18am 10 14 mph 1025.3mb 61f 63f
11:12am 9 13 mph 1025.3mb 61f 62f
11:06am 10 13 mph 1025.3mb 61f 62f
11:00am 9 11 mph 1025.4mb 60f 62f
10:54am 9 13 mph 1025.4mb 61f 62f
10:48am 9 10 mph 1025.5mb 61f 62f
10:42am 10 13 mph 1025.5mb 61f 62f
10:36am 10 11 mph 1025.5mb 61f 62f
10:30am 9 11 mph 1025.5mb 61f 62f
10:24am 7 8 mph 1025.5mb 61f 62f
10:18am 5 7 mph 1025.5mb 61f 63f
10:12am 6 10 mph 1025.4mb 61f 62f
10:06am 6 9 mph 1025.4mb 60f 62f
10:00am 8 11 mph 1025.5mb 60f 62f
9:54am 9 13 mph 1025.4mb 61f 61f
9:48am 8 10 mph 1025.4mb 60f 62f
9:42am 8 10 mph 1025.4mb 60f 62f
9:36am 9 11 mph 1025.4mb 60f 62f
9:30am 9 10 mph 1025.4mb 60f 62f
9:24am 6 10 mph 1025.4mb 60f 62f
9:18am 8 10 mph 1025.3mb 60f 62f
9:12am 8 10 mph 1025.3mb 60f 62f
9:06am 8 10 mph 1025.3mb 59f 62f
9:00am 6 9 mph 1025.3mb 59f 62f
8:54am 5 7 mph 1025.3mb 59f 62f
8:48am 3 7 mph 1025.3mb 58f 62f
8:42am 5 6 mph 1025.3mb 58f 62f
8:36am 5 7 mph 1025.3mb 59f 61f
8:30am 6 7 mph 1025.4mb 60f 61f
8:24am 7 8 mph 1025.4mb 61f 61f
8:18am 6
mph
1025.4mb 60f 61f
8:12am 5 6 mph 1025.3mb 60f 62f
8:06am 5 6 mph 1025.4mb 60f 62f
8:00am 6
mph
1025.5mb 60f -
7:54am 3
mph
1025.5mb 60f -
7:48am 3 6 mph 1025.6mb 59f 61f
7:42am 6 7 mph 1025.7mb 58f 61f
7:36am 3 6 mph 1025.6mb 58f 62f
7:30am 5 6 mph 1025.6mb 58f 62f
7:24am 3 5 mph 1025.5mb 59f 61f
7:18am 3 5 mph 1025.5mb 59f 61f
7:12am 3 5 mph 1025.4mb 58f 62f
7:06am 1 2 mph 1025.4mb 58f 62f
7:00am  -  1 mph 1025.4mb 59f 62f
6:54am  -  1 mph 1025.4mb 58f 62f
6:48am  -  1 mph 1025.4mb 58f 62f
6:42am  -  1 mph 1025.4mb 58f 62f
6:36am 1 2 mph 1025.3mb 58f 61f
6:30am 1 2 mph 1025.3mb 58f 61f
6:24am  -  1 mph 1025.3mb 58f 61f
6:18am  -  3 mph 1025.3mb 58f 60f
6:12am  -  2 mph 1025.2mb 58f 60f
6:06am  -  1 mph 1025.3mb 58f 59f
6:00am  -  1 mph 1025.4mb 58f 59f
5:54am  -  1 mph 1025.4mb 59f 59f
5:48am 1 2 mph 1025.3mb 59f 59f
5:42am 1 2 mph 1025.1mb 59f 58f
5:36am  -  1 mph 1025mb 59f 59f
5:30am  -  1 mph 1024.9mb 59f 59f
5:24am  -  1 mph 1024.8mb 59f 59f
5:18am 1
mph
1024.8mb 59f 59f
5:12am  -  1 mph 1024.8mb 59f 59f
5:06am 1 2 mph 1024.6mb 59f 59f
5:00am 1 2 mph 1024.6mb 60f 59f
4:54am 1 2 mph 1024.5mb 60f 59f
4:48am  -  1 mph 1024.4mb 60f 59f
4:42am 1 2 mph 1024.5mb 60f 59f
4:36am 1 2 mph 1024.5mb 60f 59f
4:30am  -  2 mph 1024.4mb 60f 59f
4:24am 1
mph
1024.3mb 61f 59f
4:18am 1 2 mph 1024.4mb 61f 59f
4:12am  -  1 mph 1024.3mb 60f 59f
4:06am  -  1 mph 1024.3mb 60f 59f
4:00am 1 2 mph 1024.2mb 61f 60f
3:54am 2 3 mph 1024.1mb 61f 60f
3:48am 2
mph
1024.2mb 61f 59f
3:42am 2
mph
1024.2mb 61f 59f
3:36am 1 3 mph 1024.2mb 61f 59f
3:30am 2 5 mph 1024.1mb 61f 59f
3:24am 2 3 mph 1024.1mb 61f 59f
3:18am  -  1 mph 1024.1mb 62f 60f
3:12am 1
mph
1024.2mb 62f 60f
3:06am  -  1 mph 1024.1mb 62f 60f
3:00am  -  mph 1024mb 62f 60f
2:54am  -  mph 1024mb 62f 60f
2:48am  -  1 mph 1023.9mb 62f 60f
2:42am  -  1 mph 1023.9mb 62f 60f
2:36am  -  1 mph 1024mb 62f 60f
2:30am  -  1 mph 1024.1mb 62f 61f
2:24am 1 2 mph 1024mb 62f 61f
2:18am  -  1 mph 1024mb 62f 61f
2:12am 1 3 mph 1024.1mb 62f 61f
2:06am 2 3 mph 1024.2mb 62f 61f
2:00am 1 2 mph 1024.2mb 62f 62f
1:54am  -  1 mph 1024.3mb 62f 61f
1:48am 2 5 mph 1024.3mb - -
1:42am 3 5 mph 1024.4mb - -
1:36am 3 6 mph 1024.4mb - -
1:30am 5 6 mph 1024.3mb 62f 61f
1:24am 2
mph
1024.2mb 62f 62f
1:18am 2 3 mph 1024.1mb 62f 62f
1:12am 2 3 mph 1024.2mb 62f 62f
1:06am 3
mph
1024.2mb 62f 62f
1:00am 2
mph
1024.1mb 62f 63f
12:54am 2
mph
1024mb 62f 63f
12:48am 2 3 mph 1024.1mb 62f 63f
12:42am 3
mph
1024.1mb 62f 63f
12:36am 2
mph
1024.1mb 62f 63f
12:30am 2 3 mph 1024.2mb 62f 63f
12:24am 2 3 mph 1024.1mb 62f 62f
12:18am 1 3 mph 1024.1mb 62f 63f
12:12am 3
mph
1024mb 62f 63f
12:06am 2 3 mph 1024mb 62f 62f
12:00am  -  2 mph 1024mb 62f 63f
Sat 08/27 11:54pm  -  1 mph 1023.9mb 62f 63f
11:48pm  -  1 mph 1023.9mb 62f 63f
11:42pm 1 2 mph 1024mb 62f 64f
11:36pm 2 3 mph 1024mb 62f 63f
11:30pm 2 3 mph 1023.9mb 62f 63f
11:24pm 2
mph
1023.9mb 62f 64f
11:18pm 2
mph
1023.8mb 62f 64f
11:12pm 1 2 mph 1023.8mb 62f 64f
11:06pm 1 3 mph 1023.8mb 62f 64f
11:00pm 2 3 mph 1023.8mb 62f 64f
10:54pm  -  2 mph 1023.7mb 62f 64f
10:48pm 2 3 mph 1023.7mb 62f 64f
10:42pm 1 3 mph 1023.7mb 61f 64f
10:36pm 2 3 mph 1023.6mb 61f 64f
10:30pm 2
mph
1023.5mb 61f 65f
10:24pm  -  3 mph 1023.5mb 61f 64f
10:18pm  -  mph 1023.5mb 61f 64f
10:12pm  -  mph 1023.5mb 61f 64f
10:06pm  -  mph 1023.4mb 61f 65f
10:00pm  -  1 mph 1023.4mb 61f 66f
9:54pm 1 2 mph 1023.3mb 61f 65f
9:48pm  -  1 mph 1023.3mb 61f 65f
9:42pm  -  1 mph 1023.3mb 61f 66f
9:36pm  -  1 mph 1023.2mb 60f 66f
9:30pm  -  mph 1023.2mb 60f 67f
9:24pm  -  mph 1023.2mb 60f 67f
9:18pm  -  3 mph 1023.1mb 60f 68f
9:12pm 1 3 mph 1023.2mb 60f 68f
9:06pm 2
mph
1023.1mb 61f 68f
9:00pm  -  mph 1023.1mb 61f 68f
8:54pm  -  mph 1023mb 61f 68f
8:48pm 2 5 mph 1023mb 61f 68f
8:42pm  -  3 mph 1022.9mb 61f 69f
8:36pm 2 5 mph 1022.9mb 61f 70f
8:30pm 3 5 mph 1022.8mb 61f 70f
8:24pm 1 2 mph 1022.7mb 61f 70f
8:18pm 2
mph
1022.6mb 61f 70f
8:12pm 1 10 mph 1022.5mb 62f 71f
8:06pm 1 2 mph 1022.4mb 61f 69f
8:00pm 2
mph
1022.3mb 60f 68f
7:54pm  -  2 mph 1022.1mb 61f 69f
7:48pm  -  1 mph 1022.1mb 59f -
7:42pm  -  1 mph 1022mb 59f -
7:36pm  -  1 mph 1022.1mb 59f -
7:30pm  -  mph 1022mb 59f 69f
7:24pm  -  mph 1021.9mb 59f 70f
7:18pm 3 6 mph 1021.9mb 59f 72f
7:12pm 5 6 mph 1021.8mb 59f 71f
7:06pm 5 6 mph 1021.7mb 59f 72f
7:00pm 5 6 mph 1021.6mb 59f 73f
6:54pm 5 7 mph 1021.5mb 59f 74f
6:48pm 6 8 mph - - -
6:42pm 6 7 mph - - -
6:36pm 5 6 mph - - -
6:30pm 6 7 mph 1021.3mb 59f 73f
6:24pm 5 8 mph 1021.3mb 59f 74f
6:18pm 6 8 mph 1021.3mb 59f 76f
6:12pm 6 8 mph 1021.1mb 59f 76f
6:06pm 6 9 mph 1021.1mb 59f 75f
6:00pm 6 8 mph 1021mb 59f 76f
5:54pm 6 9 mph 1021.1mb 59f 76f
5:48pm  -  mph - 59f 76f
5:42pm  -  mph - 59f 76f
5:36pm  -  mph - 59f 76f
5:30pm 5 7 mph 1020.9mb 59f 75f
5:24pm 5 7 mph 1021mb 59f 73f
5:18pm 5 8 mph 1021mb 59f 74f
5:12pm 6 9 mph 1020.9mb 60f 75f
5:06pm 6 9 mph 1020.9mb 59f 75f
5:00pm 7 9 mph 1020.9mb 59f 76f
4:54pm 5 10 mph 1020.8mb 59f 75f
4:48pm 5 9 mph 1020.8mb 60f 73f
4:42pm 6 10 mph 1020.8mb 60f 75f
4:36pm 6 9 mph 1020.8mb 60f 76f
4:30pm 7 10 mph 1020.8mb 60f 75f
4:24pm 7 8 mph 1020.8mb 60f 75f
4:18pm 5 9 mph 1020.7mb 61f 76f
4:12pm 5 7 mph 1020.7mb 61f 76f
4:06pm 6 8 mph 1020.6mb 61f 76f
4:00pm 6 10 mph 1020.6mb 61f 76f
3:54pm 6 8 mph 1020.5mb 61f 76f
3:48pm 6 10 mph 1020.5mb 61f 76f
3:42pm 6 9 mph 1020.5mb 62f 76f
3:36pm 6 8 mph 1020.4mb 61f 76f
3:30pm 6 10 mph 1020.4mb 61f 75f
3:24pm 6 9 mph 1020.3mb 61f 75f
3:18pm 6 9 mph 1020.2mb 61f 75f
3:12pm 6 10 mph 1020.2mb 61f 75f
3:06pm 8 11 mph 1020.1mb 61f 76f
3:00pm 7 10 mph 1020.1mb 61f 75f
2:54pm 6 9 mph 1020.1mb 62f 75f
2:48pm 6 11 mph 1020mb 62f 74f
2:42pm 6 10 mph 1020mb 62f 75f
2:36pm 8 13 mph 1020.1mb 62f 74f
2:30pm 8 14 mph 1020.1mb 62f 74f
2:24pm 7 11 mph 1020.1mb 62f 75f
2:18pm 8 11 mph 1020.1mb 62f 74f
2:12pm 8 10 mph 1020mb 62f 75f
2:06pm 7 11 mph 1020mb 62f 75f
2:00pm 8 10 mph 1020.1mb 62f 75f
1:54pm 8 10 mph 1020.1mb 62f 74f
1:48pm 6 14 mph 1020.2mb 62f 74f
1:42pm 7 13 mph 1020.2mb 62f 74f
1:36pm 9 13 mph 1020.1mb 62f 74f
1:30pm 9 14 mph 1020mb 62f 74f
1:24pm 7 14 mph 1020mb 62f 74f
1:18pm 7 9 mph 1019.9mb 62f 74f
1:12pm 7 10 mph 1019.9mb 62f 74f
1:06pm 8 9 mph 1019.9mb 61f 74f
1:00pm 7 11 mph 1019.9mb 62f 73f
12:54pm 7 9 mph 1019.9mb 62f 74f
12:48pm 7 10 mph 1019.9mb 61f 73f
12:42pm 8 13 mph 1019.9mb 62f 73f
12:36pm 9 15 mph 1019.8mb 62f 74f
12:30pm 11 15 mph 1019.8mb 62f 74f
12:24pm 10 15 mph 1019.7mb 62f 73f
12:18pm 11 15 mph 1019.7mb 62f 74f
12:12pm 10 15 mph 1019.7mb 62f 73f
12:06pm 11 14 mph 1019.8mb 62f 73f
12:00pm 11 16 mph 1019.7mb 62f 73f
11:54am 9 13 mph 1019.9mb 62f 73f
11:48am 11 15 mph 1019.9mb 62f 73f
11:42am 11 16 mph 1019.8mb 62f 73f
11:36am 10 14 mph 1019.9mb 62f 72f
11:30am 8 13 mph 1019.9mb 62f 72f
11:24am 9 11 mph 1019.9mb 61f 72f
11:18am 9 13 mph 1019.9mb 61f 72f
11:12am 10 13 mph 1019.8mb 61f 71f
11:06am 8 13 mph 1019.9mb 61f 72f
11:00am 10 13 mph 1019.9mb 61f 72f
10:54am 8 10 mph 1019.9mb 61f 72f
10:48am 7 10 mph 1020mb 60f 71f
10:42am 10 11 mph 1020mb 61f 71f
10:36am 10 13 mph 1020mb 61f 70f
10:30am 9 11 mph 1020mb 61f 69f
10:24am 8 10 mph 1020mb 61f 67f
10:18am 8 11 mph 1020mb 60f 70f
10:12am 9 13 mph 1020mb 60f 70f
10:06am 10 13 mph 1020mb 60f 69f
10:00am 10 14 mph 1020mb 60f 69f
9:54am 10 14 mph 1020.1mb 60f 68f
9:48am 13 15 mph 1020mb 60f 69f
9:42am 11 14 mph 1019.9mb 60f 69f
9:36am 9 15 mph 1019.9mb 60f 68f
9:30am 7 13 mph 1019.9mb 60f 68f
9:24am 7 11 mph 1019.8mb 60f 67f
9:18am 9 11 mph 1019.7mb 60f -
9:12am 10 13 mph 1019.6mb 60f -
9:06am 9 13 mph 1019.6mb 60f -
9:00am 10 13 mph 1019.5mb 60f 67f
8:54am 9 14 mph 1019.4mb 60f 67f
8:48am 10 13 mph 1019.3mb 59f 66f
8:42am 9 11 mph 1019.3mb 59f 66f
8:36am 11 15 mph 1019.2mb 60f 66f
8:30am 10 13 mph 1019.3mb 60f 66f
8:24am 10 14 mph 1019.3mb 60f 66f
8:18am 10 14 mph 1019.2mb 60f 66f
8:12am 9 14 mph 1019.1mb 60f 66f
8:06am 9 11 mph 1019.1mb 60f 66f
8:00am 8 10 mph 1019mb 60f 65f
7:54am 7
mph
1018.9mb 60f 65f
7:48am 7 9 mph 1018.9mb 60f 65f
7:42am 9 10 mph 1018.9mb 60f 65f
7:36am 9 10 mph 1019mb 60f 66f
7:30am 9 10 mph 1018.9mb 60f 66f
7:24am 7 9 mph 1018.9mb 60f 66f
7:18am 8 10 mph 1018.7mb 60f 65f
7:12am 8 9 mph 1018.7mb 60f 65f
7:06am 8 9 mph 1018.7mb 60f 65f
7:00am 7 9 mph 1018.5mb 59f 66f
6:54am 6 7 mph 1018.4mb 59f 65f
6:48am 6 7 mph 1018.3mb 59f 66f
6:42am 6
mph
1018.2mb 59f 65f
6:36am 6
mph
1018.1mb 59f 65f
6:30am 6
mph
1018mb 59f 65f
6:24am 6 7 mph 1017.9mb 59f 65f
6:18am 5 6 mph 1017.8mb 59f 65f
6:12am 5
mph
1017.8mb 59f 65f
6:06am 5 7 mph 1017.7mb 59f 64f
6:00am 6 7 mph 1017.6mb 59f 64f
5:54am 6 8 mph 1017.4mb 59f 63f
5:48am 7 8 mph 1017.3mb 59f 64f
5:42am 7 8 mph 1017.3mb 59f 64f
5:36am 6 8 mph 1017.2mb 59f 66f
5:30am 6 9 mph 1017.2mb 59f 66f
5:24am 6 8 mph 1017.2mb 59f 67f
5:18am 7 8 mph 1017.1mb 59f 67f
5:12am 7 8 mph 1017mb 59f 67f
5:06am 7 8 mph 1016.8mb 58f 67f
5:00am 7 9 mph 1016.8mb 59f 67f
4:54am 8 9 mph 1016.8mb 59f 67f
4:48am 9 11 mph 1016.6mb 58f 68f
4:42am 10 13 mph 1016.5mb 58f 68f
4:36am 11 13 mph 1016.5mb 59f 67f
4:30am 9 10 mph 1016.4mb 59f 67f
4:24am 6 7 mph 1016.3mb 59f 67f
4:18am 6 7 mph 1016.2mb 59f 67f
4:12am 5 7 mph 1016.2mb 59f 66f
4:06am 7 8 mph 1016.2mb 59f 65f
4:00am 7 8 mph 1016.2mb 59f 65f
3:54am 7 8 mph 1016.1mb 58f 66f
3:48am 7
mph
1016.2mb 59f 66f
3:42am 7 8 mph 1016.1mb 59f 66f
3:36am 8 10 mph 1016mb 59f 67f
3:30am 9 10 mph 1016mb 59f 67f
3:24am 8 9 mph 1015.9mb 59f 68f
3:18am 8 9 mph 1015.9mb 59f 68f
3:12am 7 8 mph 1015.9mb 59f 68f
3:06am 7 9 mph 1015.8mb 59f 69f
3:00am 7 9 mph 1015.6mb 59f 70f
2:54am 9 13 mph 1015.5mb 59f 71f
2:48am 10 15 mph 1015.5mb 59f 71f
2:42am 9 14 mph 1015.4mb 59f 71f
2:36am 8 13 mph 1015.4mb 59f 71f
2:30am 7 16 mph 1015.4mb 59f 71f
2:24am 9 15 mph 1015.3mb 59f 72f
2:18am 8 11 mph 1015.3mb 59f 72f
2:12am 7 11 mph 1015.3mb 59f 72f
2:06am 8 10 mph 1015.3mb 59f 72f
2:00am 7 13 mph 1015.2mb 59f 72f
1:54am 7 13 mph 1015.2mb 59f 72f
1:48am 8 13 mph 1015.2mb 59f 73f
1:42am 7 11 mph 1015.1mb 59f 72f
1:36am 7 9 mph 1015mb 59f 71f
1:30am 7 8 mph 1015mb 59f 71f
1:24am 5 7 mph 1015mb 59f 71f
1:18am 6 8 mph 1014.8mb 59f 69f
1:12am 8 9 mph 1014.7mb 59f 70f
1:06am 7 9 mph 1014.6mb 60f 70f
1:00am 8 9 mph 1014.6mb 60f 72f
12:54am 8 9 mph 1014.7mb 60f 72f
12:48am 8 9 mph 1014.7mb 60f 72f
12:42am 9 10 mph 1014.6mb 60f 70f
12:36am 8 11 mph 1014.5mb 60f 70f
12:30am 9 14 mph 1014.5mb 60f 72f
12:24am 9 13 mph 1014.5mb 60f 71f
12:18am 9 13 mph 1014.4mb 60f 72f
12:12am 10 13 mph 1014.3mb 60f 74f
12:06am 8 11 mph 1014.2mb 59f 74f
12:00am 9 13 mph 1014.2mb 59f 74f
Fri 08/26 11:54pm 9 11 mph 1014.1mb 59f 72f
11:48pm 10 11 mph 1014.1mb 59f 72f
11:42pm 10 11 mph 1014mb 59f 73f
11:36pm 10 14 mph 1014mb 59f 73f
11:30pm 10 14 mph 1013.9mb 59f 74f
11:24pm 10 13 mph 1013.9mb 59f 73f
11:18pm 10 13 mph 1013.9mb 59f 74f
11:12pm 10 13 mph 1013.9mb 59f 74f
11:06pm 11 14 mph 1013.8mb 59f 74f
11:00pm 13 15 mph 1013.7mb 59f 75f
10:54pm 11 15 mph 1013.6mb 59f 75f
10:48pm 10 14 mph 1013.6mb 59f 75f
10:42pm 8 11 mph 1013.6mb 59f 75f
10:36pm 9 14 mph 1013.5mb 59f 75f
10:30pm 10 15 mph 1013.4mb 59f 75f
10:24pm 13 17 mph 1013.3mb 59f 76f
10:18pm  -  mph 1013.2mb 59f 76f
10:12pm  -  mph 1013.2mb 59f 76f
10:06pm  -  mph 1013.1mb 58f 76f
10:00pm  -  mph 1013mb 58f 76f
9:54pm  -  mph 1012.9mb 59f 76f
9:48pm 9 13 mph 1012.9mb 59f 76f
9:42pm 9 13 mph 1012.7mb 59f 76f
9:36pm 6 11 mph 1012.7mb 59f 76f
9:30pm 8 13 mph 1012.7mb 59f 76f
9:24pm 7 14 mph 1012.6mb 59f 76f
9:18pm  -  mph - 59f 75f
9:12pm  -  mph - 60f 75f
9:06pm  -  mph - 60f 75f
9:00pm 11 17 mph - 60f 76f
8:54pm 10 18 mph - 59f 76f
8:48pm 14 21 mph 1012mb 59f 76f
8:42pm 10 16 mph 1012.1mb 59f 76f
8:36pm 10 20 mph 1012mb 59f 76f
8:30pm 14 21 mph - 59f 76f
8:24pm 11 16 mph - 59f 76f
8:18pm  -  mph 1011.7mb 59f 76f
8:12pm  -  mph 1011.6mb 60f 72f
8:06pm  -  mph 1011.6mb 59f 69f
8:00pm  -  3 mph 1011.5mb 59f 68f
7:54pm 5 6 mph 1011.4mb 59f 68f
7:48pm  -  mph 1011.3mb 59f -
7:42pm  -  mph 1011.2mb 59f -
7:36pm  -  mph 1011.1mb 59f -
7:30pm 3 5 mph 1011mb 59f 66f
7:24pm 3 6 mph 1011mb 59f 65f
7:18pm 5 7 mph 1010.9mb 60f 67f
7:12pm 3 6 mph 1010.9mb 60f 70f
7:06pm 3 5 mph 1010.8mb 60f 70f
7:00pm 6 10 mph 1010.8mb 60f 77f
6:54pm 2 7 mph 1010.7mb 60f 76f
6:48pm 3 6 mph 1010.8mb 60f 73f
6:42pm 5 7 mph 1010.8mb 60f 67f
6:36pm 2 10 mph 1010.7mb 60f 75f
6:30pm 7 11 mph - 60f 79f
6:24pm 6 9 mph - 60f 79f
6:18pm  -  mph 1010.6mb 60f 79f
6:12pm  -  mph 1010.5mb 60f 78f
6:06pm  -  mph 1010.5mb 60f 75f
6:00pm  -  mph 1010.4mb 59f 80f
5:54pm  -  mph 1010.3mb 59f 81f
5:48pm 5 8 mph 1010.3mb 59f 82f
5:42pm 7 9 mph 1010.3mb 59f 82f
5:36pm 5 9 mph 1010.4mb 59f 82f
5:30pm 6 9 mph 1010.5mb 59f 82f
5:24pm 5 10 mph 1010.6mb 59f 82f
5:18pm 7 11 mph 1010.5mb 59f 82f
5:12pm 6 13 mph 1010.4mb 59f 82f
5:06pm 8 11 mph 1010.5mb 59f 81f
5:00pm 5 8 mph 1010.5mb 59f 82f
4:54pm 5 13 mph 1010.5mb 59f 82f
4:48pm 9 13 mph 1010.5mb 59f 82f
4:42pm 7 14 mph 1010.4mb 58f 81f
4:36pm 8 14 mph 1010.5mb 58f 82f
4:30pm 6 14 mph 1010.5mb 58f 82f
4:24pm 8 11 mph 1010.4mb 59f 82f
4:18pm 3 10 mph 1010.6mb 59f 78f
4:12pm 2 3 mph 1010.6mb 59f 74f
4:06pm 2 3 mph 1010.7mb 59f 74f
4:00pm 1 6 mph 1010.7mb 59f 73f
3:54pm 5 6 mph 1010.8mb 59f 70f
3:48pm 3 6 mph 1010.8mb 59f 68f
3:42pm 5 7 mph 1010.8mb 59f 69f
3:36pm 5 6 mph 1010.9mb 60f 66f
3:30pm 5 6 mph 1010.9mb 60f 67f
3:24pm 6 7 mph 1010.9mb 60f 66f
3:18pm 5 6 mph 1010.9mb 60f 67f
3:12pm 3 6 mph 1010.8mb 60f 72f
3:06pm 5 6 mph 1010.8mb 60f 70f
3:00pm 2
mph
1010.8mb 60f 69f
2:54pm 3 5 mph 1010.7mb 60f 68f
2:48pm 5 8 mph 1010.5mb 60f 69f
2:42pm 8 10 mph 1010.6mb 60f 66f
2:36pm 3 7 mph 1010.7mb 60f 70f
2:30pm 1 5 mph 1010.8mb 60f 73f
2:24pm 5 6 mph 1010.8mb 60f 71f
2:18pm 5 8 mph 1010.8mb 60f 70f
2:12pm 7 8 mph 1010.8mb 61f 68f
2:06pm 6 7 mph 1010.8mb 60f 68f
2:00pm 5 6 mph 1010.9mb 60f 69f
1:54pm 5 6 mph 1011mb 61f 68f
1:48pm 5 6 mph 1010.9mb 60f 68f
1:42pm 6 7 mph 1011mb 60f 68f
1:36pm 5
mph
1011.1mb 60f 68f
1:30pm 5
mph
1011.1mb 61f 67f